Other Public Products
Issued by NWS Grand Forks, ND

Home | Current Version | Previous Version | Text Only | Print | Product List | Glossary Off
Versions: 1 2 3 4 5 6 7 8 9 10 11 12 13 14 15 16 17 18 19 20 21 22 23 24 25 26 27 28 29 30 31 32 33 34 35 36 37 38 39 40 41 42 43 44 45 46 47 48 49 50

000
FPUS83 KFGF 262331
OPUFGF
PRAIRIE TO PINES WEATHER ROUNDUP
NATIONAL WEATHER SERVICE EASTERN NORTH DAKOTA/GRAND FORKS ND
500 PM CST FRI DEC 26 2014

 **SATELLITE DATA USED TO AUGMENT SKY COVER AT AUTOMATED STATIONS**
 *****  WEATHER ACROSS EASTERN NORTH DAKOTA  *****

CITY           SKY/WX    TMP DP  RH WIND       PRES   REMARKS
GRAND FORKS    CLEAR      9   3  77 NW9       30.23R WCI  -4
GRAND FORKS AF CLEAR      8   4  81 NW8       30.24R WCI  -4
GRAND CITY NWS   N/A      9 N/A N/A NW10        N/A  WCI  -6
BUXTON           N/A     14   9  81 NW9         N/A  WCI   2
DEVILS LAKE    CLEAR      7  -2  66 NW6       30.18R WCI  -3
FARGO          CLOUDY    22  15  75 N13       30.20R WCI  10
WAHPETON ARPT  CLOUDY    23  18  80 N12G23    30.16S WCI  12
$$

 *****  WEATHER ACROSS CENTRAL AND WESTERN NORTH DAKOTA  *****

CITY           SKY/WX    TMP DP  RH WIND       PRES   REMARKS
JAMESTOWN      PTCLDY     7   3  84 N7        30.18F WCI  -5
BISMARCK       PTCLDY    14   8  77 N6        30.19R WCI   5
MINOT          MOCLDY     9   5  84 CALM      30.17S
MINOT AFB      CLOUDY     6   2  82 N7        30.18R WCI  -6
GARRISON         N/A     13   7  77 NW6       30.15R WCI   4
WILLISTON      CLOUDY    19  13  77 SE5       30.15S WCI  12
DICKINSON      PTCLDY    21  12  68 NE5       30.09R WCI  15
HETTINGER      PTCLDY    20  11  68 NW6       30.11S WCI  12
$$

 *****  OTHER OBSERVATIONS NORTHEAST NORTH DAKOTA  *****

CITY           SKY/WX    TMP DP  RH WIND       PRES   REMARKS
WALHALLA         N/A      5   5 100 NW8       30.24R WCI  -8
LANGDON        FAIR       0  -6  78 NW8       30.17R WCI -15
CAVALIER       CLOUDY     7   5  92 NW9       30.24S WCI  -7
GRAFTON        NOT AVBL
CANDO          FAIR       3   0  85 NW7       30.19S WCI  -9
FORT TOTTEN    NOT AVBL
ROLLA          FAIR       0  -2  92 NW3       30.16S
RUGBY          FAIR       5   0  78 NW6       30.19S WCI  -6
 ***** THE ABOVE OBSERVATIONS ARE NON NWS ARE NOT QUALITY
        CONTROLLED AND MAY MIS-REPORT RAIN FOR SNOW...
$$

 *****  OTHER OBSERVATIONS SOUTHEAST NORTH DAKOTA *****

CITY           SKY/WX    TMP DP  RH WIND       PRES   REMARKS
COOPERSTOWN    NOT AVBL
VALLEY CITY    FAIR       7   7 100 NW14      30.18F WCI -10
OAKES            N/A     14  14 100 NW15      30.19R WCI  -1
GWINNER        CLOUDY    19  18  93 NW16      30.19R WCI   5
BUFFALO        NOT AVBL
WYNDMERE         N/A     19  18  93 NW12        N/A  WCI   7
 ***** THE ABOVE OBSERVATIONS ARE NON NWS ARE NOT QUALITY
       CONTROLLED AND MAY MIS-REPORT RAIN FOR SNOW...
$$

  *****  WEATHER ACROSS NORTHERN MINNESOTA  *****

CITY           SKY/WX    TMP DP  RH WIND       PRES   REMARKS
FLAG ISLAND    CLOUDY    14   9  79 NW13      30.16R WCI   0
WARROAD        FLURRIES  18  12  79 NW7       30.17R WCI   8
ROSEAU         FLURRIES  18  10  73 NW5       30.17S WCI  11
HALLOCK        FLURRIES  10   7  85 NW12      30.22S WCI  -4
THF RVR FALLS  CLOUDY    16  12  86 NW8       30.19R WCI   5
HALSTAD          N/A     18  10  73 N16         N/A  WCI   3
FOSSTON        CLOUDY    18  14  86 NW12      30.16S WCI   5
BAUDETTE       CLOUDY    19  12  74 N7        30.14R WCI  10
WASKISH        FLURRIES  21  16  79 CALM        N/A
CROOKSTON      FLURRIES  12  10  92 NW10      30.23R WCI  -1
$$
  *****  WEATHER ACROSS CENTRAL AND WEST MINNESOTA  *****

CITY           SKY/WX    TMP DP  RH WIND       PRES   REMARKS
BEMIDJI        CLOUDY    22  16  78 N6        30.12S WCI  14
PARK RAPIDS    CLOUDY    24  16  71 NW9       30.10R WCI  14
WADENA         CLOUDY    21  18  86 N9        30.10S WCI  11
DETROIT LAKES  CLOUDY    23  21  93 N13G18    30.14R WCI  11
MOORHEAD       LGT RAIN  21  18  86 N14       30.19S WCI   8
FERGUS FALLS   CLOUDY    21  16  79 N9G20     30.16S WCI  11
ELBOW LAKE     CLOUDY    23  19  83 N12       30.11S WCI  12
MORRIS MN      CLOUDY    25  19  80 N12       30.12R WCI  14
STAPLES        CLOUDY    23  18  80 N13       30.10R WCI  11
WHEATON        CLOUDY    21  18  86 N13G21    30.18R WCI   9
$$
  *****  WEATHER ELSEWHERE ACROSS MINNESOTA  *****

CITY           SKY/WX    TMP DP  RH WIND       PRES   REMARKS
DULUTH         CLOUDY    28  21  75 N7        30.06R WCI  21
INTRNTL FALLS  CLOUDY    21  16  81 NW5       30.12R WCI  15
ELY            CLOUDY    25  19  80 NW5       30.07S WCI  19
CLOQUET        CLOUDY    28  19  69 NW8       30.07R WCI  20
BRAINERD       CLOUDY    25  18  74 N12       30.09S WCI  14
HIBBING        CLOUDY    25  18  74 NW9       30.08R WCI  15
ALEXANDRIA     CLOUDY    25  19  78 N12       30.08S WCI  14
SAINT CLOUD    CLOUDY    31  21  66 N7        30.08R WCI  24
MINNEAPOLIS    CLOUDY    31  24  75 N13       30.06R WCI  21
$$

  *****  WEATHER ACROSS SOUTH DAKOTA  *****

CITY           SKY/WX    TMP DP  RH WIND       PRES   REMARKS
SIOUX FALLS    LGT SNOW  25  22  88 N7        30.09R VSB 1   WCI  17
BROOKINGS      NOT AVBL
WATERTOWN      CLOUDY    21  18  88 N10       30.10R WCI  10
HURON          CLOUDY    23  17  78 N14       30.15R WCI  11
SISSETON         N/A     22  18  85 N18       30.14R WCI   7
ABERDEEN       CLOUDY    19  14  81 N13       30.18R WCI   6
MITCHELL       CLOUDY    24  21  88 N14       30.14R WCI  12
PIERRE         CLOUDY    20  14  77 N10       30.16R WCI   9
MOBRIDGE       CLOUDY    18  12  77 NE6       30.14R WCI  10
RAPID CITY     CLOUDY    18  12  77 N3        30.09S
$$

  *****  SOME WEATHER IN NEARBY STATES *****

CITY           SKY/WX    TMP DP  RH WIND       PRES   REMARKS
GLASGOW MT     CLOUDY    26  19  74 W3        30.10R
GREAT FALLS MT CLEAR     12   9  87 S8        30.10S WCI   0
CHEYENNE WY    LGT SNOW  13   7  77 N7        29.91R WCI   3
SCOTTSBLUFF NE LGT SNOW  19  16  88 CALM      30.04R VSB 1
OMAHA NE       CLOUDY    33  30  88 N10       30.02R WCI  25
DES MOINES IA  CLOUDY    35  31  85 N6        29.99R
DAVENPORT IA   MOCLDY    46  36  68 CALM      29.96R
CHICAGO IL     MOCLDY    46  38  73 SW5       30.00R
EAU CLAIRE WI  CLOUDY    33  28  81 N6        30.02R
LA CROSSE WI   MOCLDY    36  31  82 NW10      29.99R
$$

  *****  SOME NATIONAL WEATHER *****

CITY           SKY/WX    TMP DP  RH WIND       PRES   REMARKS
LA GUARDIA NY  PTCLDY    48  28  46 W9        30.21R
RALEIGH NC     PTCLDY    49  36  61 CALM      30.29S
ATLANTA GA     MOCLDY    53  33  46 S3        30.26S
NEW ORLEANS LA CLOUDY    64  54  69 E10G18    30.13S
OKLAHOMA CITY  PTCLDY    50  36  58 NW15      29.89R
ALBUQUERQUE NM PTCLDY    36  10  34 NW15      29.90R
SALT LAKE CITY PTCLDY    28  18  66 N8        30.08R WCI  20
LOS ANGELES CA SUNNY     60  19  20 W8        30.06R
BOISE ID       PTCLDY    36  24  62 NW14      30.22R
SEATTLE WA     MOCLDY    41  37  86 CALM      30.35S
$$

*** WEATHER ACROSS MANITOBA...SASKATCHEWAN AND ONTARIO ***
                ***ONTARIO***

CITY           SKY/WX    TMP DP  RH WIND       PRES   REMARKS
GERALDTON      CLOUDY    23  21  93 NW6       30.03R WCI  16
THUNDER BAY    CLOUDY    30  21  69 NW9       30.08R WCI  22
SIOUX LOOKOUT  LGT SNOW  16  12  86 NW6       30.09R WCI   7
TORONTO        PTCLDY    41  34  75 SW12      30.10S
BIG TROUT LK   FLURRIES   7   3  85 W7        30.07R WCI  -5
PICKLE LAKE    LGT SNOW  19  16  86 W5        30.01S WCI  13
DRYDEN         FLURRIES  10   7  85 NW12      30.11R WCI  -4
KENORA         SNOWSHWR   9   5  85 NW7       30.14  WCI  -3
$$
                *** MANITOBA***

CITY           SKY/WX    TMP DP  RH WIND       PRES   REMARKS
BRANDON        PTCLDY    -8 -13  77 W8        30.21S WCI -23
DAUPHIN        CLEAR     -9 -15  77 W7        30.22R WCI -24
ISLAND LAKE    PTCLDY    -8 -17  65 W7        30.14R WCI -22
PILOT MOUND      N/A     -6 -11  77 NW2         N/A
THE PAS        FLURRIES  -4  -9  77 S3        30.14F
THOMPSON       PTCLDY   -20 -26  76 SW3       30.10S
WINNIPEG       FLURRIES   5   0  78 NW9       30.25R WCI  -9
CHURCHILL      LGT SNOW  -9 -15  77 W9        30.03R WCI -27
GILLAM         CLEAR    -18 -24  76 W12       30.10R WCI -40
$$
                ***SASKATCHEWAN***

CITY           SKY/WX    TMP DP  RH WIND       PRES   REMARKS
ESTEVAN        MOCLDY     9   3  78 SW7       30.14F WCI  -3
KINDERSLEY     PTCLDY     9   5  85 W9        30.05S WCI  -5
LLOYDMINSTER   MOCLDY     7   5  92 W7        30.01S WCI  -5
PRINCE ALBERT  LGT SNOW   5   1  85 N2        30.08R
REGINA         MOCLDY     5   1  85 SE6       30.12R WCI  -6
YORKTON        CLEAR     -6 -11  77 S7        30.13F WCI -20
N. BATTLEFORD  FLURRIES  14  12  92 NW7       30.07R WCI   4



USA.gov is the U.S. government's official web portal to all federal, state and local government web resources and services.